Weather History for KGLE - May, 2012

Change the Weather History Date:

Sunday, May 20, 2012

  Actual Average (KDTO) Record (KDTO)
Temperature  
Mean Temperature 79 °F -  
Max Temperature 89 °F 82 °F 96 °F (2005)
Min Temperature 69 °F 61 °F 52 °F (2002)
Cooling Degree Days 14    
Growing Degree Days 29 (Base 50)    
Moisture  
Dew Point 62 °F    
Average Humidity 58    
Maximum Humidity 78    
Minimum Humidity 31    
Precipitation  
Precipitation 0.00 in - - ()
Sea Level Pressure  
Sea Level Pressure 30.10 in    
Wind  
Wind Speed 8 mph (East)    
Max Wind Speed 15 mph    
Max Gust Speed 18 mph    
Visibility 10 miles    
Events      
Averages and records for this station are not official NWS values.
T = Trace of Precipitation, MM = Missing Value Source: NWS Daily Summary

Daily Weather History Graph

Daily Weather History Graph

Search for Another Location

Airport or City:

Trip Planner

Search our weather history database for the weather conditions in past years. The results will help you decide how hot, cold, wet, or windy it might be!

Date:

Astronomy

May. 20, 2012 Rise Set
Actual Time 6:24 AM CDT 8:26 PM CDT
Civil Twilight 5:56 AM CDT 8:54 PM CDT
Nautical Twilight 5:22 AM CDT 9:28 PM CDT
Astronomical Twilight 4:46 AM CDT 10:04 PM CDT
Moon 6:05 AM CDT (5/20) 8:26 PM CDT (5/20)
Length of Visible Light 14h 57m
Length of Day
14h 02m
Waning Crescent, 0% of the Moon is Illuminated
May 20
Waning Crescent
May 20
New
May 28
First Quarter
Jun 4
Full
Jun 11
Last Quarter

Hourly Weather History & Observations

Time (CDT) Temp. Heat Index Dew Point Humidity Pressure Visibility Wind Dir Wind Speed Gust Speed Precip Events Conditions
12:15 AM 77.0 °F - 60.8 °F 57% 29.96 in 10.0 mi SSE 9.2 mph - N/A   Clear
12:35 AM 77.0 °F - 62.6 °F 61% 29.96 in 10.0 mi SSE 9.2 mph - N/A   Clear
12:55 AM 77.0 °F - 62.6 °F 61% 29.98 in 10.0 mi SSE 8.1 mph - N/A   Clear
1:15 AM 73.4 °F - 62.6 °F 69% 29.98 in 10.0 mi South 6.9 mph - N/A   Clear
1:35 AM 73.4 °F - 62.6 °F 69% 29.99 in 10.0 mi SSE 5.8 mph - N/A   Clear
1:55 AM 73.4 °F - 62.6 °F 69% 29.99 in 10.0 mi SSE 10.4 mph - N/A   Clear
2:15 AM 73.4 °F - 60.8 °F 65% 29.99 in 10.0 mi SSE 10.4 mph - N/A   Clear
2:35 AM 75.2 °F - 60.8 °F 61% 29.99 in 10.0 mi SSE 10.4 mph - N/A   Clear
2:55 AM 77.0 °F - 62.6 °F 61% 29.99 in 10.0 mi SSE 12.7 mph - N/A   Clear
3:15 AM 77.0 °F - 62.6 °F 61% 30.00 in 10.0 mi South 12.7 mph 17.3 mph N/A   Clear
3:35 AM 75.2 °F - 62.6 °F 65% 30.00 in 10.0 mi South 10.4 mph - N/A   Clear
3:55 AM 73.4 °F - 62.6 °F 69% 30.02 in 10.0 mi SSE 3.5 mph - N/A   Clear
4:15 AM 73.4 °F - 62.6 °F 69% 30.05 in 10.0 mi Calm Calm - N/A   Clear
4:35 AM 73.4 °F - 64.4 °F 73% 30.07 in 10.0 mi North 4.6 mph - N/A   Scattered Clouds
4:55 AM 73.4 °F - 64.4 °F 73% 30.08 in 10.0 mi NE 3.5 mph - N/A   Overcast
5:15 AM 73.4 °F - 64.4 °F 73% 30.07 in 10.0 mi ESE 3.5 mph - N/A   Overcast
5:35 AM 71.6 °F - 64.4 °F 78% 30.08 in 10.0 mi Calm Calm - N/A   Scattered Clouds
5:55 AM 73.4 °F - 66.2 °F 78% 30.10 in 10.0 mi NE 4.6 mph - N/A   Mostly Cloudy
6:15 AM 73.4 °F - 66.2 °F 78% 30.10 in 10.0 mi ENE 4.6 mph - N/A   Mostly Cloudy
6:35 AM 73.4 °F - 66.2 °F 78% 30.12 in 10.0 mi NNE 11.5 mph - N/A   Mostly Cloudy
6:55 AM 73.4 °F - 64.4 °F 73% 30.13 in 10.0 mi NNE 12.7 mph 18.4 mph N/A   Overcast
7:15 AM 73.4 °F - 64.4 °F 73% 30.13 in 10.0 mi NE 9.2 mph - N/A   Mostly Cloudy
7:35 AM 73.4 °F - 64.4 °F 73% 30.13 in 10.0 mi NE 11.5 mph - N/A   Scattered Clouds
7:55 AM 73.4 °F - 64.4 °F 73% 30.13 in 10.0 mi NE 10.4 mph - N/A   Mostly Cloudy
8:15 AM 73.4 °F - 62.6 °F 69% 30.15 in 10.0 mi NE 11.5 mph 16.1 mph N/A   Mostly Cloudy
8:35 AM 73.4 °F - 60.8 °F 65% 30.16 in 10.0 mi NE 12.7 mph - N/A   Overcast
8:55 AM 75.2 °F - 60.8 °F 61% 30.16 in 10.0 mi ENE 9.2 mph - N/A   Scattered Clouds
9:15 AM 77.0 °F - 62.6 °F 61% 30.17 in 10.0 mi ENE 10.4 mph - N/A   Clear
9:35 AM 78.8 °F - 62.6 °F 57% 30.16 in 10.0 mi ESE 8.1 mph - N/A   Scattered Clouds
9:55 AM 78.8 °F - 62.6 °F 57% 30.16 in 10.0 mi ESE 8.1 mph - N/A   Mostly Cloudy
10:15 AM 80.6 °F 81.5 °F 60.8 °F 51% 30.14 in 10.0 mi ESE 12.7 mph 18.4 mph N/A   Scattered Clouds
10:35 AM 82.4 °F 82.5 °F 59.0 °F 45% 30.13 in 10.0 mi ESE 15.0 mph - N/A   Clear
10:55 AM 82.4 °F 82.5 °F 59.0 °F 45% 30.13 in 10.0 mi SE 12.7 mph - N/A   Clear
11:15 AM 86.0 °F 85.4 °F 59.0 °F 40% 30.14 in 10.0 mi SE 10.4 mph - N/A   Clear
11:35 AM 86.0 °F 85.4 °F 59.0 °F 40% 30.13 in 10.0 mi SSE 10.4 mph 18.4 mph N/A   Clear
11:55 AM 87.8 °F 87.1 °F 59.0 °F 38% 30.13 in 10.0 mi SE 10.4 mph - N/A   Clear
12:15 PM 89.6 °F 88.9 °F 59.0 °F 36% 30.13 in 10.0 mi SSE 12.7 mph 17.3 mph N/A   Clear
12:35 PM 86.0 °F 85.4 °F 59.0 °F 40% 30.14 in 10.0 mi SE 9.2 mph - N/A   Clear
12:55 PM 89.6 °F 89.5 °F 60.8 °F 38% 30.13 in 10.0 mi SE 11.5 mph 17.3 mph N/A   Clear
1:15 PM 89.6 °F 88.9 °F 59.0 °F 36% 30.12 in 10.0 mi SE 5.8 mph 18.4 mph N/A   Clear
1:35 PM 89.6 °F 88.9 °F 59.0 °F 36% 30.11 in 10.0 mi SE 8.1 mph 16.1 mph N/A   Clear
1:55 PM 89.6 °F 88.9 °F 59.0 °F 36% 30.12 in 10.0 mi SE 10.4 mph 17.3 mph N/A   Clear
2:15 PM 89.6 °F 89.5 °F 60.8 °F 38% 30.12 in 10.0 mi SSE 9.2 mph 16.1 mph N/A   Clear
2:35 PM 89.6 °F 89.5 °F 60.8 °F 38% 30.12 in 10.0 mi SE 9.2 mph 17.3 mph N/A   Clear
2:55 PM 89.6 °F 88.9 °F 59.0 °F 36% 30.12 in 10.0 mi SE 5.8 mph 9.2 mph N/A   Clear
3:15 PM 89.6 °F 88.9 °F 59.0 °F 36% 30.12 in 10.0 mi ESE 5.8 mph - N/A   Clear
3:35 PM 89.6 °F 88.9 °F 59.0 °F 36% 30.11 in 10.0 mi SSE 8.1 mph - N/A   Clear
3:55 PM 89.6 °F 88.1 °F 57.2 °F 33% 30.10 in 10.0 mi ESE 5.8 mph - N/A   Clear
4:15 PM 89.6 °F 88.9 °F 59.0 °F 36% 30.10 in 10.0 mi SE 9.2 mph - N/A   Scattered Clouds
4:35 PM 89.6 °F 87.7 °F 55.4 °F 31% 30.09 in 10.0 mi ENE 5.8 mph - N/A   Scattered Clouds
4:55 PM 89.6 °F 88.1 °F 57.2 °F 33% 30.09 in 10.0 mi East 3.5 mph - N/A   Scattered Clouds
5:15 PM 89.6 °F 87.7 °F 55.4 °F 31% 30.09 in 10.0 mi ESE 4.6 mph - N/A   Scattered Clouds
5:35 PM 86.0 °F 87.3 °F 64.4 °F 48% 30.10 in 10.0 mi ENE 12.7 mph - N/A   Scattered Clouds
5:55 PM 86.0 °F 88.2 °F 66.2 °F 51% 30.10 in 10.0 mi ENE 12.7 mph 16.1 mph N/A   Clear
6:15 PM 86.0 °F 86.6 °F 62.6 °F 45% 30.10 in 10.0 mi NE 10.4 mph - N/A   Clear
6:35 PM 82.4 °F 83.4 °F 62.6 °F 51% 30.10 in 10.0 mi ENE 11.5 mph - N/A   Clear
6:55 PM 80.6 °F 82.3 °F 64.4 °F 58% 30.10 in 10.0 mi NNE 9.2 mph - N/A   Clear
7:15 PM 80.6 °F 82.3 °F 64.4 °F 58% 30.10 in 10.0 mi NE 8.1 mph - N/A   Clear
7:35 PM 80.6 °F 82.3 °F 64.4 °F 58% 30.10 in 10.0 mi NE 9.2 mph - N/A   Clear
7:55 PM 78.8 °F - 62.6 °F 57% 30.10 in 10.0 mi ENE 10.4 mph - N/A   Clear
8:15 PM 77.0 °F - 62.6 °F 61% 30.10 in 10.0 mi NE 10.4 mph - N/A   Clear
8:35 PM 77.0 °F - 64.4 °F 65% 30.11 in 10.0 mi NE 8.1 mph - N/A   Clear
8:55 PM 73.4 °F - 64.4 °F 73% 30.12 in 10.0 mi NE 4.6 mph - N/A   Clear
9:15 PM 73.4 °F - 64.4 °F 73% 30.12 in 10.0 mi NE 10.4 mph - N/A   Clear
9:35 PM 73.4 °F - 64.4 °F 73% 30.13 in 10.0 mi NE 9.2 mph - N/A   Clear
9:55 PM 71.6 °F - 62.6 °F 73% 30.14 in 10.0 mi NNE 5.8 mph - N/A   Clear
10:15 PM 69.8 °F - 60.8 °F 73% 30.15 in 10.0 mi NNE 4.6 mph - N/A   Clear
10:35 PM 69.8 °F - 60.8 °F 73% 30.15 in 10.0 mi North 3.5 mph - N/A   Clear
10:55 PM 69.8 °F - 62.6 °F 78% 30.15 in 10.0 mi North 4.6 mph - N/A   Clear
11:15 PM 69.8 °F - 62.6 °F 78% 30.16 in 10.0 mi Calm Calm - N/A   Clear
11:35 PM 69.8 °F - 62.6 °F 78% 30.16 in 10.0 mi North 3.5 mph - N/A   Clear
11:55 PM 69.8 °F - 62.6 °F 78% 30.16 in 10.0 mi North 3.5 mph - N/A   Clear